sat.trackr.live / text

‹ back to catalog

LEMUR-2-MJR092620

NORAD 58340 · 2023-174CN

PAYLOAD ACTIVE UNKNOWN

§ Identity

Operator
Country
US
Launch date
2023-11-11
Launch site
AFWTR
Launch vehicle
Mass (kg)
RCS (m²)

Purposes: earth_obs

External: N2YO · Heavens-Above · Gunter

§ Orbital elements

Epoch: 2026-09-19T05:45:57.981888Z

Period
93.02 min
Inclination
97.3942°
Eccentricity
0.0006494
Mean motion
15.48051726 rev/d
Perigee alt
418.0 km
Apogee alt
426.8 km
Semi-major
6,800.6 km
B*
2.9277e-4
RAAN
354.2070°
Arg perigee
129.7719°
Mean anomaly
230.4104°
Rev number
16,018

§ Raw data

LEMUR-2-MJR0926201 58340U 23174CN  26262.24025442  .00015254  00000+0  29277-3 0  99942 58340  97.3942 354.2070 0006494 129.7719 230.4104 15.48051726160185

JSON: /api/v1/satellites/58340 · /tle

For live sub-satellite position, see the globe view (requires WebGL).

§ Visibility from observer

Set your observer location to see the next 7 days of passes ≥ 10°. The values pass through the URL so the page stays shareable.

No JS? Fill the form by hand. The geolocation button needs JavaScript.

§ Radio — SatNOGS DB

ModeDescriptionDownlinkUplink
UHF Downlink 401.100 MHz

1 transmitter · refreshed weekly from db.satnogs.org